Weather History for Prestonsburg, KY

Change the Weather History Date:

Sunday, August 25, 2013

  Actual Average (KJKL) Record (KJKL)
Temperature  
Mean Temperature 70 °F 74 °F  
Max Temperature 82 °F 84 °F 94 °F (1995)
Min Temperature 57 °F 64 °F 55 °F (1984)
Degree Days  
Heating Degree Days 0 0  
Month to date heating degree days 0  
Since 1 June heating degree days 12  
Since 1 July heating degree days 0  
Cooling Degree Days 4 9  
Month to date cooling degree days 246  
Year to date cooling degree days 926  
Since 1 June cooling degree days 790  
Growing Degree Days 20 (Base 50)    
Moisture  
Dew Point 58 °F    
Average Humidity 68    
Maximum Humidity 99    
Minimum Humidity 35    
Precipitation  
Precipitation 0.00 in 0.11 in 0.54 in (1985)
Month to date precipitation 3.10  
Year to date precipitation 33.10  
Snow  
Snow 0.00 in 0.00 in - ()
Month to date snowfall 0.0  
Since 1 June snowfall 0.0  
Since 1 July snowfall 0.0  
Snow Depth -    
Sea Level Pressure  
Sea Level Pressure 30.34 in    
Wind  
Wind Speed 3 mph (SE)    
Max Wind Speed 9 mph    
Max Gust Speed -    
Visibility 10 miles    
Events      
T = Trace of Precipitation, MM = Missing Value Source: NWS Daily Summary

Daily Weather History Graph

Daily Weather History Graph

Search for Another Location

Airport:

Trip Planner

Search our weather history database for the weather conditions in past years. The results will help you decide how hot, cold, wet, or windy it might be!

Date:

Astronomy

Aug. 25, 2013 Rise Set
Actual Time 6:54 AM EDT 8:09 PM EDT
Civil Twilight 6:27 AM EDT 8:36 PM EDT
Nautical Twilight 5:55 AM EDT 9:09 PM EDT
Astronomical Twilight 5:21 AM EDT 9:43 PM EDT
Moon 10:46 PM EDT (8/25) 11:49 AM EDT (8/25)
Length of Visible Light 14h 09m
Length of Day
13h 14m
Waning Gibbous, 76% of the Moon is Illuminated
Aug 25
Waning Gibbous
Aug 28
Last Quarter
Sep 5
New
Sep 12
First Quarter
Sep 19
Full

Hourly Weather History & Observations

Time (EDT) Temp. Heat Index Dew Point Humidity Pressure Visibility Wind Dir Wind Speed Gust Speed Precip Events Conditions
12:15 AM 64.2 °F - 61.7 °F 91% 30.31 in 10.0 mi Calm Calm - N/A   Clear
12:35 AM 65.3 °F - 61.9 °F 89% 30.31 in 10.0 mi Calm Calm - N/A   Clear
12:55 AM 62.8 °F - 61.7 °F 96% 30.31 in 10.0 mi East 3.5 mph - N/A   Clear
1:15 AM 63.0 °F - 61.7 °F 96% 30.30 in 10.0 mi SE 4.6 mph - N/A   Clear
1:35 AM 66.2 °F - 59.2 °F 78% 30.30 in 10.0 mi SSE 9.2 mph - N/A   Clear
1:55 AM 62.1 °F - 59.9 °F 93% 30.30 in 10.0 mi SSE 4.6 mph - N/A   Clear
2:15 AM 63.7 °F - 58.5 °F 83% 30.31 in 10.0 mi SE 3.5 mph - N/A   Clear
2:35 AM 63.3 °F - 58.5 °F 84% 30.31 in 10.0 mi SSE 3.5 mph - N/A   Clear
2:55 AM 64.0 °F - 57.6 °F 79% 30.31 in 10.0 mi SSE 4.6 mph - N/A   Clear
3:15 AM 63.7 °F - 57.7 °F 81% 30.31 in 10.0 mi SSE 4.6 mph - N/A   Clear
3:35 AM 63.5 °F - 57.2 °F 80% 30.31 in 10.0 mi SSE 5.8 mph - N/A   Clear
3:55 AM 62.8 °F - 57.0 °F 81% 30.31 in 10.0 mi SE 3.5 mph - N/A   Clear
4:15 AM 59.2 °F - 57.6 °F 94% 30.31 in 10.0 mi Calm Calm - N/A   Clear
4:35 AM 60.6 °F - 57.2 °F 88% 30.31 in 10.0 mi Calm Calm - N/A   Clear
4:55 AM 58.6 °F - 58.1 °F 98% 30.32 in 10.0 mi Calm Calm - N/A   Clear
5:15 AM 58.3 °F - 58.1 °F 99% 30.33 in 7.0 mi ESE 3.5 mph - N/A   Clear
5:35 AM 59.0 °F - 57.2 °F 94% 30.34 in 10.0 mi Calm Calm - N/A   Clear
5:55 AM 59.2 °F - 57.2 °F 93% 30.35 in 10.0 mi Calm Calm - N/A   Clear
6:15 AM 59.2 °F - 57.0 °F 93% 30.35 in 10.0 mi East 3.5 mph - N/A   Clear
6:35 AM 58.6 °F - 56.7 °F 93% 30.36 in 10.0 mi East 4.6 mph - N/A   Clear
6:55 AM 57.7 °F - 56.3 °F 95% 30.37 in 10.0 mi East 4.6 mph - N/A   Clear
7:15 AM 59.0 °F - 56.7 °F 92% 30.38 in 10.0 mi East 4.6 mph - N/A   Clear
7:35 AM 59.9 °F - 57.2 °F 91% 30.38 in 10.0 mi East 4.6 mph - N/A   Clear
7:55 AM 61.2 °F - 57.4 °F 87% 30.38 in 10.0 mi East 5.8 mph - N/A   Clear
8:15 AM 62.6 °F - 58.1 °F 85% 30.39 in 10.0 mi East 4.6 mph - N/A   Clear
8:35 AM 64.4 °F - 59.0 °F 83% 30.40 in 10.0 mi East 4.6 mph - N/A   Clear
8:55 AM 65.7 °F - 59.2 °F 80% 30.39 in 10.0 mi ESE 4.6 mph - N/A   Clear
9:15 AM 68.7 °F - 59.5 °F 72% 30.39 in 10.0 mi SE 4.6 mph - N/A   Clear
9:35 AM 69.4 °F - 59.2 °F 70% 30.39 in 10.0 mi SSE 4.6 mph - N/A   Clear
9:55 AM 71.1 °F - 59.0 °F 66% 30.40 in 10.0 mi SE 4.6 mph - N/A   Clear
10:15 AM 72.3 °F - 59.0 °F 63% 30.40 in 10.0 mi SSE 3.5 mph - N/A   Clear
10:35 AM 73.2 °F - 57.9 °F 59% 30.40 in 10.0 mi SE 6.9 mph - N/A   Clear
10:55 AM 74.1 °F - 58.8 °F 59% 30.40 in 10.0 mi SE 4.6 mph - N/A   Clear
11:15 AM 74.5 °F - 58.5 °F 57% 30.40 in 10.0 mi SSE 5.8 mph - N/A   Clear
11:35 AM 75.4 °F - 58.8 °F 56% 30.39 in 10.0 mi South 4.6 mph - N/A   Clear
11:55 AM 76.1 °F - 58.6 °F 55% 30.39 in 10.0 mi SSE 4.6 mph - N/A   Clear
12:15 PM 76.3 °F - 57.7 °F 53% 30.38 in 10.0 mi Calm Calm - N/A   Clear
12:35 PM 77.4 °F - 58.8 °F 53% 30.38 in 10.0 mi SE 4.6 mph - N/A   Clear
12:55 PM 79.5 °F - 58.5 °F 48% 30.38 in 10.0 mi ENE 4.6 mph - N/A   Clear
1:15 PM 78.8 °F - 58.3 °F 49% 30.36 in 10.0 mi Calm Calm - N/A   Clear
1:35 PM 79.9 °F - 57.2 °F 46% 30.37 in 10.0 mi South 3.5 mph - N/A   Clear
1:55 PM 80.8 °F 80.9 °F 57.0 °F 44% 30.36 in 10.0 mi SE 4.6 mph - N/A   Clear
2:15 PM 81.3 °F 81.4 °F 58.1 °F 45% 30.36 in 10.0 mi East 4.6 mph - N/A   Clear
2:35 PM 81.5 °F 80.9 °F 54.0 °F 39% 30.34 in 10.0 mi ESE 3.5 mph - N/A   Clear
2:55 PM 81.5 °F 80.9 °F 54.0 °F 39% 30.34 in 10.0 mi SSE 3.5 mph - N/A   Clear
3:15 PM 81.9 °F 81.2 °F 54.9 °F 39% 30.33 in 10.0 mi ENE 3.5 mph - N/A   Clear
3:35 PM 82.0 °F 81.6 °F 56.3 °F 41% 30.32 in 10.0 mi SE 3.5 mph - N/A   Clear
3:55 PM 81.3 °F 81.0 °F 55.2 °F 41% 30.32 in 10.0 mi ESE 3.5 mph - N/A   Clear
4:15 PM 82.0 °F 81.3 °F 53.8 °F 38% 30.32 in 10.0 mi Calm Calm - N/A   Clear
4:35 PM 82.0 °F - 52.3 °F 36% 30.31 in 10.0 mi ESE 3.5 mph - N/A   Clear
4:55 PM 81.9 °F 81.0 °F 53.2 °F 37% 30.31 in 10.0 mi Calm Calm - N/A   Clear
5:15 PM 82.6 °F - 52.2 °F 35% 30.31 in 10.0 mi ESE 3.5 mph - N/A   Clear
5:35 PM 81.5 °F 80.8 °F 53.8 °F 38% 30.30 in 10.0 mi South 4.6 mph - N/A   Clear
5:55 PM 81.1 °F - 52.2 °F 36% 30.30 in 10.0 mi South 4.6 mph - N/A   Clear
6:15 PM 81.0 °F 80.5 °F 54.0 °F 39% 30.30 in 10.0 mi South 4.6 mph - N/A   Clear
6:35 PM 80.4 °F 80.3 °F 54.7 °F 41% 30.30 in 10.0 mi Calm Calm - N/A   Clear
6:55 PM 79.9 °F - 54.7 °F 42% 30.30 in 10.0 mi South 3.5 mph - N/A   Clear
7:15 PM 78.6 °F - 56.3 °F 46% 30.30 in 10.0 mi Calm Calm - N/A   Clear
7:35 PM 78.1 °F - 55.8 °F 46% 30.29 in 10.0 mi Calm Calm - N/A   Clear
7:55 PM 73.9 °F - 57.2 °F 56% 30.29 in 10.0 mi Calm Calm - N/A   Clear
8:15 PM 73.6 °F - 58.1 °F 58% 30.29 in 10.0 mi ESE 3.5 mph - N/A   Clear
8:35 PM 69.6 °F - 59.2 °F 69% 30.30 in 10.0 mi Calm Calm - N/A   Clear
8:55 PM 70.3 °F - 59.9 °F 69% 30.30 in 10.0 mi Calm Calm - N/A   Clear
9:15 PM 69.1 °F - 61.0 °F 75% 30.30 in 10.0 mi ESE 3.5 mph - N/A   Clear
9:35 PM 68.7 °F - 61.2 °F 77% 30.30 in 10.0 mi SE 3.5 mph - N/A   Clear
9:55 PM 67.8 °F - 60.8 °F 78% 30.31 in 10.0 mi ESE 3.5 mph - N/A   Clear
10:15 PM 67.3 °F - 60.6 °F 79% 30.31 in 10.0 mi Calm Calm - N/A   Clear
10:35 PM 66.2 °F - 60.6 °F 82% 30.31 in 10.0 mi Calm Calm - N/A   Clear
10:55 PM 65.8 °F - 59.7 °F 81% 30.31 in 10.0 mi Calm Calm - N/A   Clear
11:15 PM 66.2 °F - 60.1 °F 81% 30.31 in 10.0 mi Calm Calm - N/A   Clear
11:35 PM 66.2 °F - 59.5 °F 79% 30.31 in 10.0 mi Calm Calm - N/A   Clear
11:55 PM 66.0 °F - 59.7 °F 80% 30.32 in 10.0 mi Calm Calm - N/A   Clear